When you browse on this site, cookies collect data to enhance your experience and personalize the content and advertising you see.
Visit our Privacy Policy to learn more. By continuing to use the site, you agree to this use of cookies and data.
EN

Hourly Weather Pechi

Today, 6 August, Thursday

Time Temperature Precipitation Wind Pressure Humidity
00:00 +19°C° 0 mm 2 mps 753 mmHg 67%
01:00 +19°C° 0 mm 2 mps 753 mmHg 68%
02:00 +19°C° 0 mm 1 mps 753 mmHg 70%
03:00 +19°C° 0 mm 1 mps 753 mmHg 72%
04:00 +19°C° 0 mm 1 mps 753 mmHg 74%
05:00 +19°C° 0 mm 1 mps 753 mmHg 76%
06:00 +20°C° 0 mm 1 mps 754 mmHg 71%
07:00 +22°C° 0 mm 1 mps 754 mmHg 67%
08:00 +24°C° 0 mm 1 mps 754 mmHg 63%
09:00 +25°C° 0 mm 1 mps 754 mmHg 59%
10:00 +27°C° 0 mm 1 mps 754 mmHg 55%
11:00 +28°C° 0 mm 1 mps 754 mmHg 51%
12:00 +29°C° 0 mm 2 mps 754 mmHg 50%
13:00 +29°C° 0 mm 2 mps 754 mmHg 50%
14:00 +30°C° 0 mm 3 mps 754 mmHg 49%
15:00 +30°C° 0 mm 3 mps 754 mmHg 52%
16:00 +29°C° 0 mm 2 mps 754 mmHg 55%
17:00 +29°C° 0 mm 2 mps 754 mmHg 58%
18:00 +27°C° 0 mm 2 mps 754 mmHg 66%
19:00 +25°C° 0 mm 3 mps 754 mmHg 74%
20:00 +22°C° 0 mm 3 mps 754 mmHg 83%
21:00 +22°C° 0 mm 3 mps 754 mmHg 86%
22:00 +21°C° 0 mm 3 mps 755 mmHg 90%
23:00 +21°C° 0 mm 2 mps 755 mmHg 94%

Tomorrow, 7 August, Friday

Time Temperature Precipitation Wind Pressure Humidity
00:00 +20°C° 0 mm 3 mps 755 mmHg 94%
01:00 +20°C° 0 mm 3 mps 755 mmHg 95%
02:00 +19°C° 0 mm 3 mps 755 mmHg 96%
03:00 +19°C° 0 mm 3 mps 755 mmHg 95%
04:00 +18°C° 0 mm 3 mps 755 mmHg 95%
05:00 +18°C° 0 mm 3 mps 755 mmHg 95%
06:00 +19°C° 0 mm 4 mps 755 mmHg 88%
07:00 +20°C° 0 mm 4 mps 756 mmHg 82%
08:00 +21°C° 0 mm 5 mps 756 mmHg 75%
09:00 +22°C° 0 mm 5 mps 756 mmHg 69%
10:00 +25°C° 0 mm 5 mps 756 mmHg 63%
11:00 +26°C° 0 mm 6 mps 756 mmHg 56%
12:00 +26°C° 0 mm 6 mps 756 mmHg 55%
13:00 +27°C° 0 mm 6 mps 756 mmHg 53%
14:00 +27°C° 0 mm 6 mps 755 mmHg 52%
15:00 +27°C° 0 mm 5 mps 755 mmHg 55%
16:00 +26°C° 0 mm 5 mps 755 mmHg 58%
17:00 +26°C° 0 mm 5 mps 755 mmHg 61%
18:00 +23°C° 0 mm 5 mps 755 mmHg 65%
19:00 +22°C° 0 mm 4 mps 755 mmHg 69%
20:00 +20°C° 0 mm 4 mps 755 mmHg 72%
21:00 +20°C° 0 mm 4 mps 755 mmHg 74%
22:00 +19°C° 0 mm 4 mps 755 mmHg 77%
23:00 +18°C° 0 mm 3 mps 756 mmHg 79%

Day after tomorrow, 8 August, Saturday

Time Temperature Precipitation Wind Pressure Humidity
00:00 +18°C° 0 mm 3 mps 755 mmHg 79%
01:00 +17°C° 0 mm 3 mps 755 mmHg 80%
02:00 +17°C° 0 mm 3 mps 755 mmHg 81%
03:00 +16°C° 0 mm 3 mps 755 mmHg 83%
04:00 +16°C° 0 mm 3 mps 755 mmHg 85%
05:00 +16°C° 0 mm 3 mps 755 mmHg 86%
06:00 +17°C° 0 mm 3 mps 755 mmHg 81%
07:00 +19°C° 0 mm 4 mps 755 mmHg 76%
08:00 +21°C° 0 mm 4 mps 755 mmHg 70%
09:00 +22°C° 0 mm 4 mps 755 mmHg 65%
10:00 +25°C° 0 mm 4 mps 755 mmHg 61%
11:00 +26°C° 0 mm 5 mps 755 mmHg 56%
12:00 +26°C° 0 mm 4 mps 755 mmHg 55%
13:00 +27°C° 0 mm 4 mps 754 mmHg 55%
14:00 +27°C° 0 mm 4 mps 754 mmHg 54%
15:00 +27°C° 0 mm 4 mps 754 mmHg 56%
16:00 +27°C° 0 mm 4 mps 753 mmHg 58%
17:00 +26°C° 0 mm 3 mps 753 mmHg 60%
18:00 +25°C° 0 mm 3 mps 753 mmHg 66%
19:00 +22°C° 0 mm 3 mps 753 mmHg 72%
20:00 +20°C° 0 mm 2 mps 753 mmHg 78%
21:00 +19°C° 0 mm 2 mps 753 mmHg 79%
22:00 +19°C° 0 mm 2 mps 753 mmHg 81%
23:00 +18°C° 0 mm 2 mps 753 mmHg 82%

9 August, Sunday

Time Temperature Precipitation Wind Pressure Humidity
00:00 +18°C° 0 mm 2 mps 753 mmHg 83%
01:00 +17°C° 0 mm 2 mps 752 mmHg 84%
02:00 +17°C° 0 mm 2 mps 752 mmHg 85%
03:00 +16°C° 0 mm 2 mps 752 mmHg 85%
04:00 +16°C° 0 mm 2 mps 752 mmHg 85%
05:00 +16°C° 0 mm 2 mps 752 mmHg 85%
06:00 +18°C° 0 mm 2 mps 752 mmHg 79%
07:00 +19°C° 0 mm 2 mps 752 mmHg 73%
08:00 +21°C° 0 mm 3 mps 752 mmHg 67%
09:00 +22°C° 0 mm 3 mps 752 mmHg 62%
10:00 +25°C° 0 mm 3 mps 752 mmHg 57%
11:00 +26°C° 0 mm 3 mps 752 mmHg 53%
12:00 +26°C° 0 mm 3 mps 752 mmHg 51%
13:00 +27°C° 0 mm 3 mps 752 mmHg 49%
14:00 +27°C° 0 mm 3 mps 751 mmHg 48%
15:00 +27°C° 0 mm 3 mps 751 mmHg 50%
16:00 +27°C° 0 mm 2 mps 751 mmHg 52%
17:00 +27°C° 0 mm 2 mps 751 mmHg 55%
18:00 +25°C° 0 mm 2 mps 751 mmHg 62%
19:00 +23°C° 0 mm 2 mps 751 mmHg 70%
20:00 +20°C° 0 mm 2 mps 751 mmHg 78%
21:00 +19°C° 0 mm 2 mps 751 mmHg 81%
22:00 +19°C° 0 mm 2 mps 751 mmHg 85%
23:00 +18°C° 0 mm 2 mps 751 mmHg 88%

10 August, Monday

Time Temperature Precipitation Wind Pressure Humidity
00:00 +18°C° 0 mm 2 mps 751 mmHg 90%
01:00 +17°C° 0 mm 2 mps 751 mmHg 91%
02:00 +17°C° 0 mm 2 mps 751 mmHg 93%
03:00 +17°C° 0 mm 2 mps 751 mmHg 93%
04:00 +17°C° 0 mm 2 mps 751 mmHg 93%
05:00 +16°C° 0 mm 2 mps 751 mmHg 93%
06:00 +18°C° 0 mm 2 mps 751 mmHg 87%
07:00 +20°C° 0 mm 2 mps 751 mmHg 80%
08:00 +23°C° 0 mm 2 mps 751 mmHg 73%
09:00 +24°C° 0 mm 3 mps 751 mmHg 68%
10:00 +26°C° 0 mm 3 mps 751 mmHg 62%
11:00 +27°C° 0 mm 4 mps 752 mmHg 57%
12:00 +28°C° 0.1 mm 4 mps 751 mmHg 55%
13:00 +28°C° 0.1 mm 4 mps 751 mmHg 53%
14:00 +28°C° 0.1 mm 4 mps 751 mmHg 52%
15:00 +28°C° 0 mm 4 mps 751 mmHg 53%
16:00 +28°C° 0 mm 3 mps 751 mmHg 55%
17:00 +27°C° 0 mm 3 mps 751 mmHg 57%
18:00 +26°C° 0 mm 3 mps 751 mmHg 62%
19:00 +24°C° 0 mm 2 mps 751 mmHg 67%
20:00 +21°C° 0 mm 2 mps 751 mmHg 72%
21:00 +20°C° 0 mm 2 mps 751 mmHg 74%
22:00 +21°C° 0 mm 1 mps 751 mmHg 76%
23:00 +20°C° 0 mm 1 mps 751 mmHg 78%

11 August, Tuesday

Time Temperature Precipitation Wind Pressure Humidity
00:00 +20°C° 0 mm 1 mps 751 mmHg 80%
01:00 +19°C° 0 mm 1 mps 751 mmHg 82%
02:00 +17°C° 0 mm 0 mps 751 mmHg 83%
03:00 +17°C° 0 mm 0 mps 751 mmHg 84%
04:00 +17°C° 0 mm 0 mps 751 mmHg 84%
05:00 +16°C° 0 mm 0 mps 752 mmHg 84%
06:00 +18°C° 0 mm 0 mps 752 mmHg 79%
07:00 +22°C° 0 mm 1 mps 752 mmHg 74%
08:00 +24°C° 0 mm 1 mps 752 mmHg 69%
09:00 +25°C° 1.1 mm 1 mps 752 mmHg 66%
10:00 +26°C° 1.1 mm 1 mps 752 mmHg 63%
11:00 +27°C° 1.1 mm 1 mps 751 mmHg 60%
12:00 +27°C° 2 mm 1 mps 751 mmHg 60%
13:00 +28°C° 2 mm 2 mps 751 mmHg 61%
14:00 +28°C° 2 mm 2 mps 751 mmHg 61%
15:00 +28°C° 0.2 mm 2 mps 751 mmHg 61%
16:00 +28°C° 0.2 mm 1 mps 750 mmHg 62%
17:00 +28°C° 0.2 mm 1 mps 750 mmHg 62%
18:00 +26°C° 0 mm 1 mps 750 mmHg 66%
19:00 +24°C° 0 mm 1 mps 750 mmHg 69%
20:00 +21°C° 0 mm 0 mps 750 mmHg 73%
21:00 +22°C° 0 mm 1 mps 750 mmHg 75%
22:00 +22°C° 0 mm 1 mps 750 mmHg 76%
23:00 +21°C° 0 mm 1 mps 750 mmHg 78%
Show more